When you browse on this site, cookies collect data to enhance your experience and personalize the content and advertising you see.
Visit our Privacy Policy to learn more. By continuing to use the site, you agree to this use of cookies and data.
  • In Spain
  • List of Countries
  • For 7 days
  • Water Temperature
  • Satellite Maps
  • Weather Map
  • Weather Widgets
  • user-avatar
    Login

    Hourly Weather Shannon

    Today, 21 January, Monday

    Time Temperature Precipitation Wind Pressure Humidity
    00:00 +3°C° 0 mm 1 mps 770 mmHg 87%
    01:00 +3°C° 0 mm 1 mps 769 mmHg 88%
    02:00 +2°C° 0 mm 2 mps 769 mmHg 89%
    03:00 +2°C° 0 mm 2 mps 768 mmHg 89%
    04:00 +2°C° 0 mm 2 mps 767 mmHg 88%
    05:00 +2°C° 0 mm 2 mps 767 mmHg 88%
    06:00 +1°C° 0 mm 3 mps 766 mmHg 88%
    07:00 +1°C° 0 mm 3 mps 765 mmHg 87%
    08:00 +2°C° 0 mm 3 mps 764 mmHg 87%
    09:00 +3°C° 0.1 mm 4 mps 763 mmHg 85%
    10:00 +3°C° 0.1 mm 5 mps 762 mmHg 83%
    11:00 +5°C° 0.1 mm 6 mps 760 mmHg 82%
    12:00 +5°C° 1.4 mm 6 mps 759 mmHg 85%
    13:00 +5°C° 1.4 mm 7 mps 758 mmHg 88%
    14:00 +5°C° 1.4 mm 7 mps 757 mmHg 91%
    15:00 +4°C° 1.3 mm 6 mps 756 mmHg 87%
    16:00 +3°C° 1.3 mm 6 mps 756 mmHg 84%
    17:00 +2°C° 1.3 mm 5 mps 756 mmHg 80%
    18:00 +1°C° 0.2 mm 5 mps 756 mmHg 80%
    19:00 +1°C° 0.2 mm 5 mps 756 mmHg 80%
    20:00 +1°C° 0.2 mm 5 mps 757 mmHg 80%
    21:00 +1°C° 0.3 mm 4 mps 756 mmHg 80%
    22:00 +1°C° 0.3 mm 4 mps 756 mmHg 81%
    23:00 +2°C° 0.3 mm 3 mps 756 mmHg 81%

    Tomorrow, 22 January, Tuesday

    Time Temperature Precipitation Wind Pressure Humidity
    00:00 +1°C° 0.3 mm 4 mps 755 mmHg 83%
    01:00 +1°C° 0.3 mm 4 mps 755 mmHg 86%
    02:00 +1°C° 0.3 mm 4 mps 754 mmHg 88%
    03:00 +1°C° 0.4 mm 4 mps 754 mmHg 86%
    04:00 +1°C° 0.4 mm 5 mps 754 mmHg 84%
    05:00 +1°C° 0.4 mm 5 mps 753 mmHg 82%
    06:00 +1°C° 0.2 mm 5 mps 753 mmHg 83%
    07:00 +1°C° 0.2 mm 5 mps 754 mmHg 83%
    08:00 +1°C° 0.2 mm 5 mps 754 mmHg 83%
    09:00 +1°C° 0.2 mm 4 mps 754 mmHg 84%
    10:00 +1°C° 0.2 mm 4 mps 754 mmHg 85%
    11:00 +3°C° 0.2 mm 4 mps 754 mmHg 87%
    12:00 +3°C° 0.3 mm 4 mps 754 mmHg 87%
    13:00 +3°C° 0.3 mm 4 mps 754 mmHg 88%
    14:00 +3°C° 0.3 mm 3 mps 754 mmHg 89%
    15:00 +3°C° 0.3 mm 3 mps 753 mmHg 90%
    16:00 +4°C° 0.3 mm 2 mps 753 mmHg 91%
    17:00 +4°C° 0.3 mm 1 mps 753 mmHg 93%
    18:00 +4°C° 0.2 mm 1 mps 753 mmHg 93%
    19:00 +4°C° 0.2 mm 1 mps 753 mmHg 93%
    20:00 +4°C° 0.2 mm 1 mps 753 mmHg 93%
    21:00 +4°C° 0 mm 1 mps 754 mmHg 92%
    22:00 +3°C° 0 mm 1 mps 754 mmHg 92%
    23:00 +3°C° 0 mm 1 mps 754 mmHg 91%

    Day after tomorrow, 23 January, Wednesday

    Time Temperature Precipitation Wind Pressure Humidity
    00:00 +4°C° 0.1 mm 1 mps 754 mmHg 92%
    01:00 +4°C° 0.1 mm 1 mps 755 mmHg 93%
    02:00 +5°C° 0.1 mm 1 mps 755 mmHg 94%
    03:00 +5°C° 0.1 mm 1 mps 755 mmHg 94%
    04:00 +5°C° 0.1 mm 1 mps 755 mmHg 94%
    05:00 +5°C° 0.1 mm 1 mps 755 mmHg 94%
    06:00 +5°C° 0.2 mm 1 mps 755 mmHg 95%
    07:00 +5°C° 0.2 mm 1 mps 756 mmHg 95%
    08:00 +6°C° 0.2 mm 1 mps 756 mmHg 95%
    09:00 +6°C° 0 mm 1 mps 757 mmHg 94%
    10:00 +7°C° 0 mm 1 mps 757 mmHg 93%
    11:00 +7°C° 0 mm 0 mps 757 mmHg 92%
    12:00 +7°C° 0 mm 0 mps 757 mmHg 93%
    13:00 +7°C° 0 mm 0 mps 757 mmHg 94%
    14:00 +7°C° 0 mm 0 mps 757 mmHg 95%
    15:00 +8°C° 0.1 mm 1 mps 758 mmHg 96%
    16:00 +7°C° 0.1 mm 1 mps 758 mmHg 96%
    17:00 +7°C° 0.1 mm 1 mps 758 mmHg 97%
    18:00 +8°C° 0.2 mm 1 mps 759 mmHg 97%
    19:00 +8°C° 0.2 mm 1 mps 759 mmHg 98%
    20:00 +8°C° 0.2 mm 1 mps 759 mmHg 98%
    21:00 +9°C° 0.4 mm 1 mps 759 mmHg 98%
    22:00 +8°C° 0.4 mm 2 mps 759 mmHg 98%
    23:00 +8°C° 0.4 mm 2 mps 760 mmHg 98%

    24 January, Thursday

    Time Temperature Precipitation Wind Pressure Humidity
    00:00 +9°C° 0.3 mm 3 mps 760 mmHg 98%
    01:00 +9°C° 0.3 mm 3 mps 760 mmHg 98%
    02:00 +10°C° 0.3 mm 4 mps 760 mmHg 97%
    03:00 +10°C° 0.1 mm 4 mps 760 mmHg 97%
    04:00 +10°C° 0.1 mm 4 mps 760 mmHg 97%
    05:00 +9°C° 0.1 mm 5 mps 760 mmHg 97%
    06:00 +9°C° 0.1 mm 5 mps 760 mmHg 96%
    07:00 +9°C° 0.1 mm 5 mps 761 mmHg 96%
    08:00 +9°C° 0.1 mm 5 mps 761 mmHg 95%
    09:00 +9°C° 0 mm 5 mps 762 mmHg 93%
    10:00 +9°C° 0 mm 5 mps 762 mmHg 92%
    11:00 +9°C° 0 mm 5 mps 762 mmHg 90%
    12:00 +10°C° 0 mm 4 mps 762 mmHg 91%
    13:00 +10°C° 0 mm 4 mps 762 mmHg 91%
    14:00 +10°C° 0 mm 4 mps 762 mmHg 92%
    15:00 +10°C° 0 mm 4 mps 763 mmHg 91%
    16:00 +8°C° 0 mm 4 mps 763 mmHg 91%
    17:00 +8°C° 0 mm 4 mps 763 mmHg 90%
    18:00 +8°C° 0 mm 4 mps 763 mmHg 91%
    19:00 +8°C° 0 mm 4 mps 763 mmHg 92%
    20:00 +8°C° 0 mm 4 mps 764 mmHg 93%
    21:00 +8°C° 0 mm 4 mps 764 mmHg 92%
    22:00 +8°C° 0 mm 4 mps 764 mmHg 91%
    23:00 +8°C° 0 mm 4 mps 764 mmHg 90%

    25 January, Friday

    Time Temperature Precipitation Wind Pressure Humidity
    00:00 +8°C° 0 mm 4 mps 763 mmHg 89%
    01:00 +8°C° 0 mm 5 mps 763 mmHg 89%
    02:00 +8°C° 0 mm 5 mps 763 mmHg 89%
    03:00 +8°C° 0 mm 5 mps 763 mmHg 89%
    04:00 +8°C° 0 mm 5 mps 763 mmHg 89%
    05:00 +8°C° 0 mm 5 mps 763 mmHg 88%
    06:00 +7°C° 0 mm 5 mps 763 mmHg 89%
    07:00 +7°C° 0 mm 4 mps 762 mmHg 90%
    08:00 +7°C° 0 mm 4 mps 762 mmHg 92%
    09:00 +8°C° 0.1 mm 5 mps 762 mmHg 92%
    10:00 +8°C° 0.1 mm 5 mps 762 mmHg 92%
    11:00 +9°C° 0.1 mm 5 mps 762 mmHg 92%
    12:00 +9°C° 0.2 mm 5 mps 762 mmHg 93%
    13:00 +9°C° 0.2 mm 5 mps 761 mmHg 94%
    14:00 +10°C° 0.2 mm 4 mps 761 mmHg 96%
    15:00 +9°C° 0.4 mm 5 mps 761 mmHg 95%
    16:00 +9°C° 0.4 mm 5 mps 760 mmHg 95%
    17:00 +9°C° 0.4 mm 6 mps 760 mmHg 95%
    18:00 +9°C° 0.2 mm 5 mps 760 mmHg 95%
    19:00 +9°C° 0.2 mm 5 mps 759 mmHg 95%
    20:00 +9°C° 0.2 mm 5 mps 759 mmHg 95%
    21:00 +10°C° 0.4 mm 5 mps 758 mmHg 95%
    22:00 +10°C° 0.4 mm 5 mps 757 mmHg 94%
    23:00 +10°C° 0.4 mm 6 mps 756 mmHg 94%

    26 January, Saturday

    Time Temperature Precipitation Wind Pressure Humidity
    00:00 +10°C° 0.7 mm 6 mps 754 mmHg 94%
    01:00 +10°C° 0.7 mm 5 mps 753 mmHg 94%
    02:00 +9°C° 0.7 mm 5 mps 751 mmHg 94%
    03:00 +9°C° 0.5 mm 6 mps 748 mmHg 92%
    04:00 +8°C° 0.5 mm 6 mps 746 mmHg 89%
    05:00 +8°C° 0.5 mm 7 mps 744 mmHg 87%
    06:00 +7°C° 0.2 mm 6 mps 743 mmHg 89%
    07:00 +7°C° 0.2 mm 5 mps 742 mmHg 91%
    08:00 +8°C° 0.2 mm 3 mps 742 mmHg 92%
    09:00 +7°C° 0.3 mm 6 mps 743 mmHg 89%
    10:00 +6°C° 0.3 mm 9 mps 745 mmHg 86%
    11:00 +4°C° 0.3 mm 12 mps 746 mmHg 83%
    12:00 +4°C° 0.1 mm 11 mps 747 mmHg 81%
    13:00 +5°C° 0.1 mm 10 mps 749 mmHg 80%
    14:00 +3°C° 0.1 mm 9 mps 751 mmHg 79%
    15:00 +4°C° 0.1 mm 8 mps 752 mmHg 79%
    16:00 +3°C° 0.1 mm 6 mps 753 mmHg 79%
    17:00 +3°C° 0.1 mm 4 mps 755 mmHg 79%
    18:00 +3°C° 0.1 mm 4 mps 755 mmHg 81%
    19:00 +3°C° 0.1 mm 4 mps 755 mmHg 82%
    20:00 +3°C° 0.1 mm 4 mps 756 mmHg 83%
    21:00 +3°C° 0.1 mm 3 mps 756 mmHg 84%
    22:00 +3°C° 0.1 mm 3 mps 756 mmHg 85%
    23:00 +4°C° 0.1 mm 2 mps 756 mmHg 86%
    Show more